BEIDOU-3 M17

Last updated on May 15, 2019, 3:07 a.m. UTC

1 43706U 18093A   19134.36240559 -.00000052  00000-0  00000+0 0  9990
2 43706  54.8774 270.6931 0008413 251.7579   1.5737  1.86231626  3277
UTC
Height (km)
Latitude
Longitude
Inclination
Orbital Period
UTC large
Height (km)
Speed (km/s)
/
Latitude / Longitude
Inclination (degrees)
Orbital Period (minutes)
Azimuth
Elevation
Range (km)
Doppler Factor
iOS Compass Heading
iOS Angle

Next 30 passes for location: Hong Kong

Rise time Rise Azimuth (degrees) Set time Set Azimuth (degrees) Duration Max altitude (degrees)

No matching passes for this satellites